DW8016 Weather Reports


time (UTC)temp
C
wind
direction
speed
KPH
gust
KPH
rain 1hr
cm
rain 24hr
cm
rain mn
cm
humidity
%
barometer
mb
20260505005712 22 192 0.0 6.4 0.00 0.00 0.00 41 1008.9
20260505004700 22 178 1.6 9.7 0.00 0.00 0.00 41 1008.8
20260505003657 22 196 1.6 9.7 0.00 0.00 0.00 40 1008.8
20260505002707 22 203 1.6 9.7 0.00 0.00 0.00 39 1008.6
20260505001654 23 189 3.2 11.3 0.00 0.00 0.00 39 1008.6
20260505000640 23 281 3.2 20.9 0.00 0.00 0.00 38 1008.6
20260504235607 23 169 3.2 27.4 0.00 0.00 0.00 38 1008.5
20260504234555 23 213 4.8 27.4 0.00 0.00 0.00 37 1008.6
20260504233537 23 230 4.8 14.5 0.00 0.00 0.00 36 1008.4
20260504232505 23 231 4.8 22.5 0.00 0.00 0.00 36 1008.4
20260504231448 23 165 8.0 22.5 0.00 0.00 0.00 35 1008.3
20260504230442 24 162 6.4 17.7 0.00 0.00 0.00 35 1008.3
20260504224320 24 156 4.8 24.1 0.00 0.00 0.00 34 1008.3
20260504223248 24 175 8.0 24.1 0.00 0.00 0.00 34 1008.4
20260504222308 24 218 8.0 19.3 0.00 0.00 0.00 33 1008.4
20260504220131 24 96 8.0 40.2 0.00 0.00 0.00 33 1008.2
20260504214012 24 263 12.9 35.4 0.00 0.00 0.00 33 1008.3
20260504212950 25 244 8.0 22.5 0.00 0.00 0.00 31 1008.3
20260504210854 26 163 8.0 19.3 0.00 0.00 0.00 30 1008.3
20260504205820 26 145 8.0 16.1 0.00 0.00 0.00 29 1008.2
20260504204800 26 184 6.4 22.5 0.00 0.00 0.00 30 1008.4
20260504203813 26 175 6.4 22.5 0.00 0.00 0.00 28 1008.4
20260504202812 26 189 6.4 20.9 0.00 0.00 0.00 29 1008.5
20260504201749 26 250 4.8 16.1 0.00 0.00 0.00 29 1008.7
20260504200801 26 186 4.8 14.5 0.00 0.00 0.00 30 1008.8
20260504194546 26 229 4.8 17.7 0.00 0.00 0.00 30 1009.0
20260504193540 25 244 6.4 20.9 0.00 0.00 0.00 30 1009.2
20260504192531 25 213 8.0 20.9 0.00 0.00 0.00 30 1009.3
20260504190407 25 166 6.4 19.3 0.00 0.00 0.00 32 1009.7
20260504185424 25 167 8.0 19.3 0.00 0.00 0.00 31 1010.0
20260504184412 25 157 6.4 16.1 0.00 0.00 0.00 30 1010.1
20260504183357 26 184 4.8 16.1 0.00 0.00 0.00 29 1010.2
20260504182343 26 227 6.4 22.5 0.00 0.00 0.00 30 1010.4
20260504180151 25 148 4.8 17.7 0.00 0.00 0.00 32 1010.8
20260504175209 25 268 6.4 17.7 0.00 0.00 0.00 31 1011.0
20260504174155 25 117 4.8 17.7 0.00 0.00 0.00 31 1011.1
20260504172101 24 254 4.8 14.5 0.00 0.00 0.00 33 1011.2
20260504171111 24 243 6.4 17.7 0.00 0.00 0.00 31 1011.5
20260504151016 23 136 4.8 14.5 0.00 0.00 0.00 29 1012.8
20260504140952 20 251 4.8 12.9 0.00 0.00 0.00 36 1013.1
20260504081528 11 211 0.0 6.4 0.00 0.00 0.00 60 1014.3
20260504080457 11 215 0.0 1.6 0.00 0.00 0.00 60 1014.4
20260504070402 11 191 0.0 0.0 0.00 0.00 0.00 54 1014.3
20260504050121 9 263 0.0 0.0 0.00 0.00 0.00 60 1014.7
20260504045105 9 263 0.0 0.0 0.00 0.00 0.00 60 1014.7
20260504044054 9 263 0.0 0.0 0.00 0.00 0.00 58 1014.8
20260504041943 9 263 0.0 0.0 0.00 0.00 0.00 58 1014.7
20260504040958 9 263 0.0 0.0 0.00 0.00 0.00 59 1014.6
20260504040000 8 263 0.0 0.0 0.00 0.00 0.00 58 1014.7
20260504033741 9 263 0.0 0.0 0.00 0.00 0.00 56 1014.7
20260504032713 9 263 0.0 0.0 0.00 0.00 0.00 56 1014.6
20260504031707 10 263 0.0 0.0 0.00 0.00 0.00 56 1014.5
20260504025512 10 263 0.0 0.0 0.00 0.00 0.00 54 1014.5
20260504023359 10 263 0.0 0.0 0.00 0.00 0.00 55 1014.3
20260504022351 10 263 0.0 0.0 0.00 0.00 0.00 55 1014.2
20260504021341 10 263 0.0 0.0 0.00 0.00 0.00 55 1014.1
20260504020325 10 263 0.0 0.0 0.00 0.00 0.00 52 1014.1
20260504015343 11 263 0.0 0.0 0.00 0.00 0.00 52 1014.0
20260504014407 11 263 0.0 0.0 0.00 0.00 0.00 49 1013.9
20260504013429 11 263 0.0 0.0 0.00 0.00 0.00 48 1013.9
20260504012403 12 263 0.0 0.0 0.00 0.00 0.00 46 1013.8
20260504011340 12 263 0.0 0.0 0.00 0.00 0.00 45 1013.8